Flag Weather past 2 weeks in Brazzaville, Congo

Now
77 °F

Passing clouds.


Feels Like: 78 °F
Forecast: 73 / 87 °F
Wind: 2 mph from West

Location: Brazzaville / Maya-Maya

Current Time: Nov 27, 2014 at 4:25:44 AM

Latest Report: Nov 27, 2014 at 3:00 AM


Visibility: 5 mi

Pressure: 29.86 "Hg

Humidity: 83%

Dew point: 72 °F

Location of BrazzavilleLocation

Historic Weather in Brazzaville — Graph

°F

Brazzaville temperature yesterday

Maximum temperature yesterday: 91 °F (at 3:00 PM)
Minimum temperature yesterday: 73 °F (at 12:00 AM)
Average temperature yesterday: 81 °F

Past Weeks' High & Low Weather Summary

 TemperatureHumidityPressure
High91 °F (Nov 26, 3:00 PM)100% (Nov 15, 11:00 AM)30.04 "Hg (Nov 15, 11:00 AM)
Low68 °F (Nov 25, 3:00 AM)46% (Nov 22, 4:00 PM)29.71 "Hg (Nov 17, 4:00 PM)
Average78 °F81%29.90 "Hg
* Reported Nov 12 2:00 AM — Nov 27 2:58 AM, Brazzaville, Weather by CustomWeather, © 2014

Note: Actual official high and low records may vary slightly from our data, if they occured in-between our weather recording intervals... More about our weather records

Advertising

Brazzaville weather history for previous 24 hours

 ConditionsComfort  
Time TempWeatherWind HumidityBarometerVisibility
2:58 AM
Nov 27
77 °FPassing clouds.2 mph83%29.86 "Hg5 mi
2:00 AM73 °FThunderstorms. Passing clouds.2 mph89%29.86 "Hg5 mi
1:00 AM79 °FThunderstorms. Passing clouds.No wind79%29.86 "Hg5 mi
12:00 AM79 °FThunderstorms. Passing clouds.2 mph79%29.86 "Hg5 mi
11:53 PM
Nov 26
79 °FThunderstorms. Passing clouds.2 mph79%29.86 "Hg5 mi
11:00 PM79 °FClear.3 mph79%29.89 "Hg5 mi
10:00 PM81 °FClear.2 mph74%29.89 "Hg5 mi
9:00 PM81 °FPassing clouds.2 mph74%29.89 "HgN/A
8:00 PM82 °FPassing clouds.3 mph70%29.86 "HgN/A
7:00 PM84 °FPassing clouds.2 mph66%29.83 "HgN/A
6:00 PM90 °FPassing clouds.2 mph55%29.77 "HgN/A
5:00 PM90 °FScattered clouds.5 mph55%29.74 "HgN/A
4:00 PM91 °FPartly sunny.5 mph52%29.77 "HgN/A
3:00 PM91 °FPartly sunny.3 mph52%29.77 "HgN/A
2:00 PM90 °FPartly sunny.2 mph55%29.80 "HgN/A
1:00 PM90 °FScattered clouds.3 mph59%29.86 "HgN/A
12:00 PM86 °FScattered clouds.2 mph66%29.89 "HgN/A
11:00 AM84 °FScattered clouds.3 mph70%29.92 "HgN/A
10:00 AM82 °FScattered clouds.3 mph74%29.95 "HgN/A
9:00 AMN/AScattered clouds.5 mphN/A29.95 "HgN/A
8:00 AM77 °FScattered clouds.2 mph83%29.95 "HgN/A
7:00 AM73 °FPassing clouds.2 mph89%29.95 "HgN/A
6:00 AM73 °FPassing clouds.2 mph89%29.92 "HgN/A
5:00 AM73 °FPassing clouds.2 mph89%29.92 "Hg5 mi
4:00 AM73 °FClear.2 mph89%29.92 "Hg5 mi
Weather by CustomWeather, © 2014

See weather overviewHow to use our weather pages